Weather in Athlone

Ireland     53°25′54″N   7°55′22″W
temp.,
°C
wind,
m/s
gust,
m/s
humid.,
%
clouds,
%
prec.,
mm/h
press.,
hPa
HPBL,
m
25 january, mon
mon2500:00−2wsw23910 0.0 100639
03:00−3wsw23920 0.0 100835
06:00−3sw23910 0.0 100940
09:00−2ssw349247 0.0 101078
12:00+3sw378872 0.0 1011359
15:00+4sw3989100 0.0 1011522
18:00+1ssw389299 0.0 1012162
21:000s379467 0.0 1013157
26 january, tue
tue2600:00+2sse399183 0.0 1012245
03:00+3sse41295100 0.9 1011659
06:00+4sse51196100 2.6 1009471
09:00+5sse51298100 3.4 1007462
12:00+7s4998100 3.4 1007314
15:00+8sw3898100 0.2 1007253
18:00+7w3698100 0.2 1009148
21:00+6sw3599100 0.0 1011101
27 january, wed
wed2700:00+6ssw2298100 1.0 101148
03:00+7sse3699100 1.1 1010197
06:00+7s3998100 2.1 1009321
09:00+8ssw4997100 0.1 1009350
12:00+9s3695100 0.1 1009225
15:00+9sse4998100 0.4 1005353
18:00+10sse51397100 1.9 1002580
21:00+11s61396100 2.1 999513
28 january, thu
thu2800:00+11ssw5149599 2.6 998994
03:00+9sw6168974 0.2 9981283
06:00+9sw7168975 0.3 9981081
09:00+8sw6149517 0.0 999989
12:00+10sw6139159 0.2 999987
15:00+11sw51187100 0.3 9951016
18:00+9w6129396 2.4 995666
21:00+6w7158999 0.2 997882
29 january, fri
fri2900:00+6w5149251 0.2 999863
03:00+6wsw614913 0.0 998862
06:00+5wsw5139512 0.0 997667
09:00+5wsw412958 0.0 998512
12:00+7wnw610824 0.0 998856
15:00+7nw697917 0.1 9991032
18:00+5nne498427 0.1 1003657
21:00+1nne3108354 0.0 1007407